Tracking 28790 objects as of 19-Apr-2024
HD Live streaming from Space Station
objects crossing your sky now

SHIYAN 10 02 (SY-10 02)

Track SHIYAN 10 02 (SY-10 02) now!


NORAD ID: 54878
Int'l Code: 2022-178A
Perigee: 1,363.5 km
Apogee: 39,002.1 km
Inclination: 63.7 °
Period: 717.7 minutes
Semi major axis: 26553 km
RCS: Unknown
Launch date: December 29, 2022
Source: People's Republic of China (PRC)
Launch site: Xichang Space Center, China (XSC)
Your satellite tracking list
Your tracking list is empty




NASA's NSSDC Master Catalog

Two Line Element Set (TLE):
1 54878U 22178A   24110.08191507  .00001001  00000-0  00000+0 0  9992
2 54878  63.6840  57.4213 7087222 269.2572  16.5653  2.00637979  9585
Source of the keplerian elements: AFSPC